Gulfport, MS

3:36 PM CDT on May 29, 2017 (GMT -0500)
Gulfport-Biloxi Regional

Weather History for KGPT - March, 2013

Change the Weather History Date:

Tuesday, March 26, 2013

  Actual Average Record
Temperature  
Mean Temperature 46 °F -  
Max Temperature 57 °F 70 °F 83 °F (1988)
Min Temperature 34 °F 52 °F 34 °F (2013)
Degree Days  
Heating Degree Days 20    
Moisture  
Dew Point 25 °F    
Average Humidity 46    
Maximum Humidity 73    
Minimum Humidity 28    
Precipitation  
Precipitation 0.00 in - - ()
Sea Level Pressure  
Sea Level Pressure 30.32 in    
Wind  
Wind Speed 9 mph (NNW)    
Max Wind Speed 15 mph    
Max Gust Speed 24 mph    
Visibility 10 miles    
Events      
Averages and records for this station are not official NWS values.
T = Trace of Precipitation, MM = Missing Value Source: NWS Daily Summary

Daily Weather History Graph

Daily Weather History Graph

Search for Another Location

Airport or City:

Trip Planner

Search our weather history database for the weather conditions in past years. The results will help you decide how hot, cold, wet, or windy it might be!

Date:

Astronomy

Mar. 26, 2013 Rise Set
Actual Time 6:52 AM CDT 7:11 PM CDT
Civil Twilight 6:28 AM CDT 7:35 PM CDT
Nautical Twilight 6:00 AM CDT 8:03 PM CDT
Astronomical Twilight 5:31 AM CDT 8:32 PM CDT
Moon 6:47 PM CDT (3/26) 6:07 AM CDT (3/26)
Length of Visible Light 13h 07m
Length of Day
12h 19m
Waxing Gibbous, 99% of the Moon is Illuminated
Mar 26
Waxing Gibbous
Mar 27
Full
Apr 2
Last Quarter
Apr 10
New
Apr 18
First Quarter

Hourly Weather History & Observations

Time (CDT) Temp. Windchill Dew Point Humidity Pressure Visibility Wind Dir Wind Speed Gust Speed Precip Events Conditions
12:53 AM 43.0 °F 38.8 °F 27.0 °F 53% 30.26 in 10.0 mi North 6.9 mph - N/A   Clear
1:53 AM 39.0 °F 34.0 °F 28.0 °F 65% 30.27 in 10.0 mi NNW 6.9 mph - N/A   Clear
2:53 AM 39.0 °F 34.8 °F 26.1 °F 60% 30.28 in 10.0 mi North 5.8 mph - N/A   Clear
3:53 AM 37.0 °F 31.6 °F 25.0 °F 62% 30.29 in 10.0 mi NNW 6.9 mph - N/A   Clear
4:53 AM 37.0 °F 30.4 °F 26.1 °F 65% 30.30 in 10.0 mi North 9.2 mph - N/A   Clear
5:53 AM 36.0 °F 29.6 °F 25.0 °F 64% 30.32 in 10.0 mi NNW 8.1 mph - N/A   Clear
6:53 AM 34.0 °F 31.0 °F 26.1 °F 73% 30.34 in 10.0 mi NW 3.5 mph - N/A   Clear
7:53 AM 37.0 °F 31.6 °F 26.1 °F 65% 30.35 in 10.0 mi NW 6.9 mph - N/A   Clear
8:53 AM 42.1 °F 35.2 °F 25.0 °F 51% 30.37 in 10.0 mi NW 12.7 mph - N/A   Clear
9:53 AM 45.0 °F 38.5 °F 23.0 °F 42% 30.37 in 10.0 mi NNW 13.8 mph 23.0 mph N/A   Clear
10:53 AM 46.9 °F - 21.0 °F 36% 30.37 in 10.0 mi NW 12.7 mph 20.7 mph N/A   Clear
11:53 AM 48.9 °F - 21.9 °F 35% 30.35 in 10.0 mi NNW 12.7 mph 20.7 mph N/A   Clear
12:53 PM 51.1 °F - 23.0 °F 33% 30.33 in 10.0 mi NW 12.7 mph 20.7 mph N/A   Clear
1:53 PM 55.0 °F - 23.0 °F 29% 30.31 in 10.0 mi North 15.0 mph 24.2 mph N/A   Clear
2:53 PM 55.9 °F - 23.0 °F 28% 30.29 in 10.0 mi North 11.5 mph 21.9 mph N/A   Clear
3:53 PM 55.9 °F - 24.1 °F 29% 30.27 in 10.0 mi NW 15.0 mph 19.6 mph N/A   Clear
4:53 PM 57.0 °F - 24.1 °F 28% 30.27 in 10.0 mi NW 12.7 mph 24.2 mph N/A   Clear
5:53 PM 55.0 °F - 24.1 °F 30% 30.27 in 10.0 mi NNW 10.4 mph 21.9 mph N/A   Clear
6:53 PM 53.1 °F - 24.1 °F 32% 30.28 in 10.0 mi NNW 11.5 mph - N/A   Clear
7:53 PM 50.0 °F - 25.0 °F 38% 30.31 in 10.0 mi North 5.8 mph - N/A   Clear
8:53 PM 48.0 °F - 25.0 °F 41% 30.34 in 10.0 mi North 5.8 mph - N/A   Clear
9:53 PM 45.0 °F 41.2 °F 26.1 °F 48% 30.36 in 10.0 mi North 6.9 mph - N/A   Clear
10:53 PM 44.1 °F 39.5 °F 26.1 °F 49% 30.37 in 10.0 mi North 8.1 mph - N/A   Clear
11:53 PM 43.0 °F 39.5 °F 27.0 °F 53% 30.38 in 9.0 mi North 5.8 mph - N/A   Clear